Regional Weather Roundup
Issued by NWS

Home | Current Version | Previous Version | Text Only | Print | Product List | Glossary On
Versions: 1 2 3 4 5 6 7 8 9 10 11 12 13 14 15 16 17 18 19 20 21 22 23 24 25 26 27 28 29 30 31 32 33 34 35 36 37 38 39 40 41 42 43 44 45 46 47 48 49 50
000
ASCA42 TJSJ 261210
RWRPR
PUERTO RICO/U.S. VIRGIN ISLANDS HOURLY WEATHER ROUNDUP
NATIONAL WEATHER SERVICE SAN JUAN PR
800 AM AST SUN FEB 26 2017

PRZ001>002-007>008-010-261300-
PUERTO RICO

CITY           SKY/WX    TMP DP  RH WIND       PRES   REMARKS
SAN JUAN LMM   MOSUNNY   75  72  88 CALM      30.05R
AGUADILLA      SUNNY     73  64  73 CALM      30.08R
CEIBA          MOSUNNY   81  72  74 E6        30.07R
$$

VIZ001>002-261300-
U.S. VIRGIN ISLANDS

CITY           SKY/WX    TMP DP  RH WIND       PRES   REMARKS
CHARLOTTE AMA  MOSUNNY   75  72  88 E7        30.04R
CHRISTIANSTED  MOSUNNY   75  70  83 NE5       30.04R
$$

HOURLY WEATHER ROUNDUP FOR THE NEWS MEDIA

CITY           SKY/WX    TMP DP  RH WIND       PRES   REMARKS
ORLANDO        CLEAR     59  40  49 N8        30.12R
NEW YORK       MOCLDY    38  19  46 NW22G31   29.90R WCI  27
NEWARK         MOCLDY    37  18  46 NW17G25   29.91R WCI  27
CHICAGO        MOCLDY    25  19  78 S8        30.01S WCI  16
HARTFORD       CLEAR     38  22  52 W13       29.74R WCI  30
BOSTON         MOCLDY    39  23  52 W18G28    29.70R WCI  30
DALLAS         PTCLDY    46  29  51 SE17      29.98F
PHILADELPHIA   MOCLDY    37  17  44 NW20      29.98R WCI  27
LOS ANGELES    LGT RAIN  50  40  68 N6        30.00S
WASHINGTON DC  PTCLDY    33  14  45 NW16G24   30.06R WCI  23


USA.gov is the U.S. government's official web portal to all federal, state and local government web resources and services.